Regional Weather Roundup
Issued by NWS Sterling, VA

Home | Current Version | Previous Version | Graphics & Text | Print | Product List | Glossary On
Versions: 1 2 3 4 5 6 7 8 9 10 11 12 13 14 15 16 17 18 19 20 21 22 23 24 25 26 27 28 29 30 31 32 33 34 35 36 37 38 39 40 41 42 43 44 45 46 47 48 49 50
000
ASUS41 KLWX 011310
RWRLWX

REGIONAL WEATHER ROUNDUP
NATIONAL WEATHER SERVICE BALTIMORE MD/WASHINGTON DC
900 AM EDT MON SEP 01 2014

Note: "FAIR" indicates few or no clouds below 12,000 feet
with no significant weather and/or obstructions to visibility.
 TC=TEMPERATURE CELSIUS

 * =Non NWS site. Station does not report precipitation (e.g. rain,
    snow, etc.), thunder, or fog.

DCZ001-MDZ009-015-VAZ040>042-051-053>054-011400-
WASHINGTON METRO

CITY           SKY/WX    TMP DP  RH WIND       PRES   REMARKS
WASHINGTON NAT PTSUNNY   80  73  79 S3        30.03F
DULLES         PTSUNNY   76  72  87 S6        30.03F
ANDREWS AFB    PTSUNNY   78  74  88 SW5       30.03S
QUANTICO       PTSUNNY   76  73  91 SW5       30.04S
COLLEGE PARK*  PTSUNNY   77  75  94 CALM      30.03S
LEESBURG*      PTSUNNY   75  75 100 CALM      30.04F
MANASSAS*      SUNNY     75  75 100 CALM      30.03F
GAITHERSBURG*  MOSUNNY   77  73  88 S3        30.07F

$$

MDZ006>007-011-014-011400-
BALTIMORE METRO

CITY           SKY/WX    TMP DP  RH WIND       PRES   REMARKS
BWI AIRPORT    PTSUNNY   76  73  91 CALM      30.03S
MD SCIENCE CTR   N/A     78  73  84 MISG      30.03F
MARTIN STATE   MOSUNNY   77  77 100 CALM      30.04S
ANNAPOLIS      CLOUDY    78  72  81 CALM      30.02F
FORT MEADE*    PTSUNNY   73  72  94 CALM      30.05F

$$

MDZ012-015-019>023-011400-
MARYLAND EASTERN SHORE

CITY           SKY/WX    TMP DP  RH WIND       PRES   REMARKS
OCEAN CITY     CLOUDY    81  75  82 W9        30.05S
SALISBURY      CLOUDY    81  75  82 W9        30.04F
BAY BRIDGE AP*   N/A     77  75  94 CALM      30.02F
CAMBRIDGE*     CLOUDY    77  73  88 CALM      30.03F
EASTON*        RAIN      77  77 100 S5        30.06F

$$

MDZ017>025-011400-
SOUTHERN MARYLAND

CITY           SKY/WX    TMP DP  RH WIND       PRES   REMARKS
PATUXENT RIVER CLOUDY    77  74  90 CALM      30.02F
ST INIGOES     LGT RAIN  77  73  87 S8        30.03F
LEONARDTOWN*   CLOUDY    75  72  88 CALM      30.04F

$$

MDZ003>005-011400-
NORTH CENTRAL MARYLAND

CITY           SKY/WX    TMP DP  RH WIND       PRES   REMARKS
FREDERICK*     CLOUDY   N/A N/A N/A CALM      30.06S
HAGERSTOWN APT CLOUDY    74  71  91 S7        30.04F
WESTMINSTER*   PTSUNNY   73  72  94 SW5       30.05S

$$

MDZ501>502-011400-
WESTERN MARYLAND

CITY           SKY/WX    TMP DP  RH WIND       PRES   REMARKS
OAKLAND*       CLOUDY    64 N/A N/A SW6       30.13S FOG
CUMBERLAND*    CLOUDY    72  70  94 CALM      30.08F

$$

VAZ025>031-011400-
SHENANDOAH VALLEY

CITY           SKY/WX    TMP DP  RH WIND       PRES   REMARKS
WINCHESTER*    CLOUDY    77  72  83 SW5       30.04F
STAUNTON*      SUNNY     78  67  68 SW7       30.10S

$$

WVZ021-048>050-054>055-011400-
EASTERN WEST VIRGINIA PANHANDLE

CITY           SKY/WX    TMP DP  RH WIND       PRES   REMARKS
MARTINSBURG    MOSUNNY   76  69  79 CALM      30.04F
PETERSBURG*    NOT AVBL

$$

VAZ036>039-050-011400-
CENTRAL FOOTHILLS

CITY           SKY/WX    TMP DP  RH WIND       PRES   REMARKS
CHARLOTTESVILL MOSUNNY   75  72  90 S5        30.05F
ORANGE*        PTSUNNY   73  72  94 S3        30.06S

$$

VAZ055>057-011400-
NORTH AND CENTRAL PIEDMONT

CITY           SKY/WX    TMP DP  RH WIND       PRES   REMARKS
FREDERICKSBRG* PTSUNNY   76  76 100 SW5       30.03S
STAFFORD*      PTSUNNY   76  76 100 CALM      30.07F

$$

NCZ024-NYZ072-PAZ021-071-VAZ022-071-011400-
OTHER REGIONAL OBSERVATIONS

CITY           SKY/WX    TMP DP  RH WIND       PRES   REMARKS
NEW YORK CITY  MOSUNNY   77  71  82 VRB5      30.03F
PHILADELPHIA   CLOUDY    75  72  90 SW5       30.02F FOG
PITTSBURGH     CLOUDY    71  70  96 S3        30.03S FOG
ROANOKE        PTSUNNY   77  68  73 W8        30.14R
RICHMOND       CLOUDY    80  73  79 SW7       30.06F
RALEIGH        PTSUNNY   77  72  84 SW5       30.12S

$$

ANZ530>537-011400-
MARINE OBSERVATIONS

STATION/POSITION TIME  TEMP    WIND        PRES
                       AIR SEA DIR/SP/G
                 (UTC) (F)     (DEG/KT/KT) (MB)
THOMAS PT LIGHT  1300   76 78  230/  4/  5 1017.5F
BALT KEY BRIDGE  1300          210/  2/  3 1016.6F
COVE POINT       1300   75     180/  5/  5 1016.5F
LEWISETTA        1300   78 79  240/  6/  8 1016.8F
SOLOMONS ISLAND  1300      80                N/A
PINEY POINT      1300          220/  8/  9   N/A

$$



USA.gov is the U.S. government's official web portal to all federal, state and local government web resources and services.